Location: Jackson
(42.2460°N, 84.4010°W)
Time: 19:31:28
(UTC-04:00)

Courier 1B Rocket - Pass Details

Date: 15 February 2026
Orbit: 920 x 1201 km, 28.2° (Epoch: 13 March)

Event Time Altitude Azimuth Distance (km) Brightness Sun altitude
Rises 00:02:09 0° 251° (WSW) 3,700 - -58.5°
Reaches altitude 10° 00:05:19 10° 237° (WSW) 2,797 - -58.8°
Maximum altitude 00:10:29 23° 188° (S) 2,076 - -59.1°
Drops below altitude 10° 00:15:54 10° 139° (SE) 2,956 - -59.4°
Sets 00:19:22 0° 126° (SE) 3,962 - -59.6°
